SCP
0 0 0 0 0 0 0 0 0 0 0 0 0 0 0 0 0 0 0 0 0 0 0 0 0 0 0 0 0 0 0 -0 -0 0 0 0 0 0 0 0 0 0 0 0 0 0 0
0 0 0 0 0 0 0 0 0 0 0 0 0 0 0 0 0 0 0 0 0 0 0 0 0 0 -0 -0 0 0 0 0 0 0 0 0 0 0 0 0 0 0 0 0 0 0 0
0 0 0 0 0 0 0 0 0 0 0 0 0 0 0 0 0 0 0 0 0 0 0 0 0 0 0 0 0 0 0 0 0 0 0 0 0 0 0 0 0 0 0 0 0 0 0
0 0 0 0 0 0 0 0 0 0 0 0 0 0 0 0 0 0 0 0 0 0 0 0 0 0 -0 0 0 0 0 0 0 0 0 0 0 0 0 0 0 0 0 0 0 0 0
0 0 0 0 0 0 0 0 0 0 0 0 0 0 0 0 0 0 0 0 0 0 0 0 0 0 0 0 0 0 0 0 0 0 0 0 0 0 0 0 0 0 0 0 0 0 0
0 0 0 0 0 0 0 0 0 0 0 0 0 0 0 0 0 0 0 0 0 0 0 0 0 0 0 0 0 0 0 0 0 0 0 0 0 0 0 0 0 0 0 0 0 0 0
0 0 0 0 0 0 0 0 0 0 0 0 0 0 0 0 0 0 0 0 0 0 0 0 0 0 0 0 0 0 0 0 0 0 0 0 0 0 0 0 0 0 0 0 0 0 0
0 0 0 0 0 0 0 0 0 0 0 0 0 0 0 0 0 0 0 0 0 0 0 0 0 0 -0 0 0 -0 0 0 0 0 0 0 0 0 0 0 0 0 0 0 0 0 0
0 0 0 0 0 0 0 0 0 0 0 0 0 0 0 0 0 0 0 0 0 0 0 0 0 0 0 0 0 -0 0 0 0 0 0 0 0 0 0 0 0 0 0 0 0 0 0
0 0 0 0 0 0 0 0 0 0 0 0 0 0 0 0 0 0 0 0 0 0 0 0 0 0 0 0 0 0 0 0 0 0 0 0 0 0 0 0 0 0 0 0 0 0 0
0 0 0 0 0 0 0 0 0 0 0 0 0 0 0 0 0 0 0 0 0 0 0 0 0 0 0 0 0 0 0 0 0 0 0 0 0 0 0 0 0 0 0 0 0 0 0
0 0 0 0 0 0 0 0 0 0 0 0 0 0 0 0 0 0 0 0 0 0 0 0 0 0 0 0 0 0 0 0 0 0 0 0 0 0 0 0 0 0 0 0 0 0 0
0 0 0 0 0 0 0 0 0 0 0 0 0 0 0 0 0 0 0 0 0 0 0 0 0 0 0 0 0 -0 0 0 0 0 0 0 0 0 0 0 0 0 0 0 0 0 0
0 0 0 0 0 0 0 0 0 0 0 0 0 0 0 0 0 0 0 0 0 0 0 0 0 0 0 0 0 0 0 0 0 0 0 0 0 0 0 0 0 0 0 0 0 0 0
0 0 0 0 0 0 0 0 0 0 0 0 0 0 0 0 0 0 0 0 0 0 0 0 0 0 0 0 0 0 0 0 0 0 0 0 0 0 0 0 0 0 0 0 0 0 0
0 0 0 0 0 0 0 0 0 0 0 0 0 0 0 0 0 0 0 0 0 0 0 0 0 0 0 0 0 0 0 0 0 0 0 0 0 0 0 0 0 0 0 0 0 0 0
0 0 0 0 0 0 0 0 0 0 0 0 0 0 0 0 0 0 0 0 0 0 0 0 0 0 0 0 0 0 0 0 0 0 0 0 0 0 0 0 0 0 0 0 0 0 0
0 0 0 0 0 0 0 0 0 0 0 0 0 0 0 0 0 0 0 0 0 0 0 0 0 0 0 0 0 0 0 0 0 0 0 0 0 0 0 0 0 0 0 0 0 0 0
0 0 0 0 0 0 0 0 0 -0 0 0 0 0 0 0 0 0 0 0 0 0 0 0 0 0 0 0 0 0 0 0 0 0 0 0 0 0 0 0 0 0 0 0 0 0 0
0 0 0 -0 -0 -0 -0 -0 0 0 0 0 0 0 0 0 0 0 0 0 0 0 0 0 0 0 0 0 0 0 0 0 0 0 0 0 0 0 0 0 0 0 0 0 0 0 0
0 0 -0 -0 -0 -0 0 0 0 0 0 0 0 0 0 0 0 0 0 0 0 0 0 0 0 0 0 0 0 0 0 0 0 0 0 0 0 0 0 0 0 0 0 0 0 0 0
-0 -0 -0 -0 -0 -0 0 0 0 0 0 0 0 0 0 0 0 0 0 0 0 0 0 0 0 0 0 0 0 0 0 0 0 0 0 0 0 0 0 0 0 0 0 0 0 0 0
-0 -0 -0 0 0 0 0 0 0 0 0 0 0 0 0 0 0 0 0 0 0 0 0 0 0 0 0 0 0 0 0 0 0 0 0 0 0 0 0 0 0 0 0 0 0 0 0
0 0 0 0 0 0 0 0 0 -0 0 0 0 0 0 0 0 0 0 0 0 0 0 0 0 0 0 0 0 0 0 0 0 0 0 0 0 0 0 0 0 0 0 0 0 0 0
0 -0 -0 -0 -0 -0 -0 -0 -0 -0 0 0 0 0 0 0 0 0 0 0 0 0 0 0 0 0 0 0 0 0 0 0 0 0 0 0 0 0 0 0 0 0 0 0 0 0 0
-0 -0 -0 -0 -0 -0 -0 -0 0 0 0 0 0 0 0 0 0 0 0 0 0 0 0 0 0 0 0 0 0 0 0 0 0 0 0 0 0 0 0 0 0 0 0 0 0 0 0
-0 -0 -0 -0 -0 -0 -0 0 0 0 0 0 0 0 0 0 0 0 0 0 0 0 0 0 0 0 0 0 0 0 0 0 0 0 0 0 0 0 0 0 0 0 0 0 0 0 0
-0 -0 -0 -0 -0 -0 0 0 0 0 0 0 0 0 0 0 0 0 0 0 0 0 0 0 0 0 0 0 0 0 0 0 0 0 0 0 0 0 0 0 0 0 0 0 0 0 0
-0 -0 -0 -0 -0 -0 0 0 0 0 0 0 0 0 0 0 0 0 0 0 0 0 0 0 0 0 0 0 0 0 0 0 0 0 0 0 0 0 0 0 0 0 0 0 0 0 0
Wind_Speed_500mb
83 79 75 71 68 63 60 57 53 48 46 43 39 38 40 38 39 35 34 35 35 34 37 37 40 41 40 18 39 25 37 25 20 25 29 34 36 41 23 15 28 18 19 37 50 58 58
85 83 80 76 72 66 64 60 56 51 48 44 43 42 38 36 36 34 33 35 36 33 33 32 33 35 32 19 25 13 10 24 26 24 26 28 33 36 43 40 20 28 38 45 57 57 59
89 87 84 80 75 71 68 63 58 54 51 48 45 40 36 36 39 39 35 33 29 26 24 25 30 33 44 58 40 35 31 30 31 37 44 40 39 37 40 23 34 30 20 28 32 29 23
88 90 86 83 80 75 71 66 61 60 57 51 45 38 37 40 42 39 33 30 25 23 31 35 36 35 35 45 35 40 31 36 37 36 48 53 43 47 44 35 35 19 16 19 20 24 47
94 90 87 87 83 79 75 71 67 61 57 52 47 41 37 34 30 29 29 28 29 41 43 40 35 22 34 15 18 12 11 23 30 25 26 29 40 50 33 19 14 16 22 26 29 37 39
100 95 91 90 87 84 81 76 70 65 59 54 49 42 35 32 28 26 28 31 32 36 31 29 23 14 33 33 20 12 15 13 13 19 28 32 12 8 7 10 25 11 18 26 33 26 26
105 102 98 95 93 90 87 81 74 70 63 58 52 45 38 33 28 28 29 15 12 10 15 23 18 22 17 3 14 21 8 19 23 25 8 24 10 22 24 30 38 37 40 42 37 34 36
110 108 104 103 100 96 93 88 80 78 72 64 56 50 40 35 31 27 12 7 3 5 22 46 66 64 67 56 46 65 35 18 11 12 12 14 30 29 28 34 33 38 40 43 43 23 29
112 114 111 111 108 105 100 94 86 85 79 69 57 50 42 34 24 19 12 11 14 17 9 37 48 38 66 37 61 78 36 35 17 20 22 29 17 27 29 37 40 45 31 44 42 25 26
84 98 118 122 117 111 107 100 97 88 75 62 56 47 36 23 17 21 15 12 15 12 4 11 9 8 25 28 11 41 41 35 14 22 25 25 37 43 45 45 22 47 12 29 26 20 23
78 81 92 117 121 121 117 106 102 91 70 55 49 38 32 32 28 19 23 16 6 7 6 16 12 15 19 19 21 7 11 23 10 16 13 14 19 23 21 23 18 33 10 10 10 14 12
78 87 110 124 122 127 123 116 102 88 70 58 49 41 38 38 30 21 25 18 4 3 12 9 14 15 12 23 15 7 17 17 17 11 21 28 39 18 28 25 22 25 7 5 7 5 13
96 100 118 116 128 126 121 111 85 70 61 47 41 43 47 42 26 32 26 19 6 5 9 10 6 15 14 11 20 17 12 8 9 7 15 19 11 18 7 14 12 21 2 6 7 6 17
112 121 123 134 141 135 108 87 77 68 59 49 41 43 42 39 37 37 34 6 9 13 15 6 1 1 4 6 14 16 6 6 8 7 7 6 18 9 13 7 3 11 1 5 10 6 9
119 117 135 135 107 98 100 92 83 69 57 50 46 49 39 38 37 39 29 6 12 13 9 11 14 9 9 15 15 10 4 6 4 7 6 5 9 5 13 2 3 6 4 13 7 11 8
113 111 109 104 103 93 86 78 73 64 60 58 54 40 32 28 32 39 5 9 8 8 19 20 6 9 9 17 16 23 4 10 4 2 5 4 12 13 9 7 8 1 6 2 0 9 14
118 112 103 97 89 82 82 77 70 59 60 53 55 20 22 17 25 18 7 11 9 20 25 8 8 13 14 13 17 18 11 7 8 5 6 8 8 10 12 7 9 3 4 6 3 6 8
122 107 93 82 78 77 71 66 61 59 60 53 24 6 19 27 10 8 5 9 10 23 20 5 9 3 2 9 15 12 15 18 10 12 6 10 8 8 11 19 29 23 14 9 5 10 7
111 96 84 81 76 69 67 59 54 61 54 34 14 14 14 27 6 3 5 10 13 13 13 1 6 13 15 7 9 7 12 24 7 6 4 5 6 6 11 7 11 9 3 6 5 7 9
96 89 82 75 71 67 60 53 53 58 49 36 16 6 8 8 2 3 7 8 12 10 5 1 5 9 10 9 11 10 18 14 25 8 6 8 10 13 9 14 14 24 31 25 13 9 13
93 90 84 77 68 61 58 53 47 49 36 26 8 7 14 6 6 6 3 7 8 10 14 30 8 5 4 4 8 9 13 17 22 12 6 9 5 20 27 34 24 24 34 39 32 24 28
84 81 75 69 62 56 53 50 46 46 30 19 14 9 10 10 23 15 9 7 8 9 4 9 5 8 6 4 7 5 3 7 6 10 3 7 4 5 10 27 23 29 34 33 35 34 31
79 75 69 62 54 49 49 47 45 42 29 22 20 17 8 5 11 10 11 11 8 7 7 2 6 4 5 7 9 8 12 20 17 12 8 8 8 4 8 10 19 14 14 19 25 31 31
75 70 65 54 48 46 48 48 43 31 32 32 17 16 10 1 6 8 12 18 10 8 5 9 8 3 13 6 13 22 28 31 31 23 28 17 16 9 17 16 25 12 16 23 31 30 27
69 63 56 49 45 47 48 46 40 35 32 29 18 17 8 3 6 13 12 6 12 10 2 11 15 14 5 7 6 9 6 10 17 29 27 22 11 5 11 22 25 29 31 28 29 30 16
61 58 53 49 48 46 45 41 38 35 33 25 25 22 10 8 9 19 11 10 7 7 10 25 6 8 10 5 3 7 6 6 8 12 18 16 10 16 13 10 9 10 11 38 16 20 18
56 52 49 49 46 42 39 35 36 33 27 27 27 19 14 10 10 7 6 5 8 10 3 6 7 6 18 4 3 4 10 10 12 17 12 9 9 4 4 8 10 17 20 32 12 12 37
53 53 53 47 42 38 32 30 34 31 26 24 22 14 16 6 2 5 4 6 8 6 2 7 8 5 5 2 5 6 6 4 6 8 11 7 8 8 7 5 16 22 28 10 25 54 48
56 51 46 44 41 34 34 33 32 29 23 19 13 6 2 4 7 8 15 19 22 18 5 3 4 8 3 5 5 3 5 5 12 15 6 9 10 10 10 13 26 51 47 64 60 62 61
Wind_Direction_500mb
229 229 230 229 228 226 227 227 228 227 230 233 238 242 248 254 261 265 271 278 284 291 296 300 303 307 312 291 260 270 304 304 299 303 269 272 267 276 260 266 279 270 280 294 305 306 307
229 227 228 228 228 226 226 226 227 227 229 231 236 241 245 253 261 266 272 283 286 291 296 299 299 303 305 271 293 284 306 296 291 283 271 259 269 281 288 281 277 288 295 293 293 291 292
230 226 227 228 226 226 224 223 224 225 227 231 233 238 246 255 263 268 275 280 286 289 295 302 306 310 293 265 283 253 244 266 264 268 271 262 274 287 292 312 294 312 309 296 284 287 275
233 227 227 227 226 225 224 222 220 224 227 225 232 241 256 267 269 271 269 275 274 285 298 296 297 301 274 298 285 267 248 262 275 277 264 256 264 271 278 280 298 304 290 278 268 264 267
233 229 227 228 226 224 222 220 223 221 221 226 235 243 257 269 268 261 265 273 283 289 294 287 287 292 274 331 274 326 278 266 290 289 269 270 249 247 257 262 283 237 256 256 275 254 258
234 231 229 228 227 224 223 220 222 221 224 230 236 242 249 255 255 258 269 286 297 287 282 273 257 266 267 265 237 265 231 278 286 302 298 279 233 232 263 220 240 248 249 257 262 275 274
234 233 231 230 227 225 224 221 222 225 226 230 234 237 240 242 252 266 285 311 307 293 237 221 209 219 266 239 274 270 260 290 283 302 264 298 215 226 232 232 239 255 267 273 273 282 284
230 235 233 231 229 226 224 222 221 224 226 227 229 229 232 236 253 270 259 173 205 290 297 265 256 256 254 263 288 274 270 286 221 238 255 269 256 258 243 251 269 269 272 276 285 294 292
229 237 233 232 230 227 224 223 222 221 222 218 226 223 226 241 243 227 147 231 239 285 261 285 255 235 248 259 256 268 260 255 255 261 266 265 260 289 260 263 264 270 271 275 274 284 274
232 241 247 233 228 227 224 220 217 210 205 203 211 217 223 207 194 168 200 211 254 299 308 251 177 309 221 234 281 261 251 230 215 248 247 259 247 240 255 268 261 274 273 299 309 326 288
236 245 249 236 225 223 224 220 211 206 195 196 198 201 190 173 147 170 179 196 258 41 337 132 123 154 173 178 325 172 192 211 217 263 278 245 301 318 307 282 276 269 46 30 352 327 339
236 239 241 231 222 220 218 212 203 196 190 193 193 183 171 164 145 152 184 193 144 76 246 202 139 178 180 213 253 201 170 205 239 251 257 265 278 279 269 289 298 295 308 349 260 202 243
231 235 229 214 213 219 209 201 184 183 182 178 174 170 169 173 168 172 174 161 107 211 260 141 166 156 205 244 223 228 218 217 209 249 250 269 270 290 54 329 340 18 314 309 298 217 253
224 219 209 216 210 207 192 175 172 169 162 160 151 151 165 179 184 180 174 93 195 221 266 61 214 297 265 282 289 259 242 244 320 56 16 275 298 360 11 49 12 311 142 212 245 272 327
199 185 191 182 169 166 165 163 160 154 150 145 155 170 172 179 187 179 157 187 205 208 324 7 345 306 233 240 260 265 287 241 73 92 174 326 245 354 349 98 5 338 295 170 193 219 252
174 162 166 160 158 157 151 148 144 143 145 155 153 152 169 182 184 170 122 229 242 8 355 16 300 347 349 343 345 5 214 122 96 129 127 246 292 266 297 118 58 17 345 341 308 245 243
159 162 158 151 148 147 141 138 132 140 149 151 138 133 161 164 162 157 183 217 283 304 31 0 321 294 320 349 343 342 317 347 228 173 74 341 209 269 355 215 206 56 309 34 313 168 208
153 149 146 147 143 140 131 129 144 153 148 146 140 107 159 155 126 195 194 174 243 274 309 302 327 258 268 298 297 307 298 302 24 21 297 277 11 272 253 288 304 282 244 181 210 238 226
149 152 148 137 132 127 131 137 143 142 143 146 108 102 131 158 148 220 258 227 241 247 248 314 348 9 355 277 276 283 301 337 84 100 5 21 190 288 310 294 291 74 244 145 272 289 218
142 138 136 136 136 136 142 146 150 147 147 145 131 108 131 188 166 143 176 245 251 175 156 102 300 321 322 320 309 281 307 304 342 27 179 145 216 233 241 263 303 295 293 287 224 249 270
143 139 142 142 141 144 146 150 155 147 146 144 109 144 164 169 230 206 14 322 237 231 191 174 198 231 353 289 329 310 359 355 343 11 243 355 268 280 275 266 279 286 281 288 275 269 270
147 143 140 141 142 143 146 146 152 149 140 113 116 125 155 167 156 174 193 227 243 278 104 128 90 20 69 2 54 257 19 349 289 4 24 57 295 320 284 293 294 293 293 296 295 295 289
145 143 143 145 143 143 137 142 144 142 128 108 105 122 122 151 149 144 185 211 228 105 41 27 61 106 341 47 14 333 293 281 275 286 292 211 190 246 252 305 311 286 258 261 271 267 267
144 140 141 141 142 138 137 140 143 121 125 122 98 131 86 250 136 203 142 169 170 138 140 44 93 3 45 52 320 307 301 285 265 251 236 241 255 247 270 287 269 252 252 281 294 300 322
139 140 140 142 142 138 137 138 133 116 113 100 92 112 97 44 211 96 92 55 38 48 272 238 258 255 256 38 19 303 282 272 242 242 240 228 232 235 237 257 280 297 279 275 286 305 347
138 140 145 142 139 136 136 138 142 127 115 119 105 95 86 68 1 16 91 159 180 228 259 227 133 136 95 109 151 233 247 282 275 320 321 319 237 237 265 268 239 266 315 323 309 299 306
138 139 137 135 135 135 136 139 143 134 127 112 124 105 88 87 39 88 76 70 28 20 341 66 22 169 178 147 174 216 255 299 285 295 310 335 337 204 261 250 277 261 309 307 283 281 317
134 135 136 135 134 133 132 133 140 142 128 124 122 121 113 107 325 352 38 19 324 301 125 349 15 299 41 110 152 235 259 280 317 345 336 297 301 284 305 322 280 3 338 334 296 298 299
132 133 134 134 135 134 133 135 142 151 140 114 102 118 164 179 224 256 262 253 240 235 319 131 242 320 249 66 17 354 325 316 272 283 306 270 189 272 249 256 282 295 281 283 290 292 290
Wind_Speed_850mb
83 79 75 71 68 63 60 57 53 48 46 43 39 38 40 38 39 35 34 35 35 34 37 37 40 41 40 18 39 25 37 25 20 25 29 34 36 41 23 15 28 18 19 37 50 58 58
85 83 80 76 72 66 64 60 56 51 48 44 43 42 38 36 36 34 33 35 36 33 33 32 33 35 32 19 25 13 10 24 26 24 26 28 33 36 43 40 20 28 38 45 57 57 59
89 87 84 80 75 71 68 63 58 54 51 48 45 40 36 36 39 39 35 33 29 26 24 25 30 33 44 58 40 35 31 30 31 37 44 40 39 37 40 23 34 30 20 28 32 29 23
88 90 86 83 80 75 71 66 61 60 57 51 45 38 37 40 42 39 33 30 25 23 31 35 36 35 35 45 35 40 31 36 37 36 48 53 43 47 44 35 35 19 16 19 20 24 47
94 90 87 87 83 79 75 71 67 61 57 52 47 41 37 34 30 29 29 28 29 41 43 40 35 22 34 15 18 12 11 23 30 25 26 29 40 50 33 19 14 16 22 26 29 37 39
100 95 91 90 87 84 81 76 70 65 59 54 49 42 35 32 28 26 28 31 32 36 31 29 23 14 33 33 20 12 15 13 13 19 28 32 12 8 7 10 25 11 18 26 33 26 26
105 102 98 95 93 90 87 81 74 70 63 58 52 45 38 33 28 28 29 15 12 10 15 23 18 22 17 3 14 21 8 19 23 25 8 24 10 22 24 30 38 37 40 42 37 34 36
110 108 104 103 100 96 93 88 80 78 72 64 56 50 40 35 31 27 12 7 3 5 22 46 66 64 67 56 46 65 35 18 11 12 12 14 30 29 28 34 33 38 40 43 43 23 29
112 114 111 111 108 105 100 94 86 85 79 69 57 50 42 34 24 19 12 11 14 17 9 37 48 38 66 37 61 78 36 35 17 20 22 29 17 27 29 37 40 45 31 44 42 25 26
84 98 118 122 117 111 107 100 97 88 75 62 56 47 36 23 17 21 15 12 15 12 4 11 9 8 25 28 11 41 41 35 14 22 25 25 37 43 45 45 22 47 12 29 26 20 23
78 81 92 117 121 121 117 106 102 91 70 55 49 38 32 32 28 19 23 16 6 7 6 16 12 15 19 19 21 7 11 23 10 16 13 14 19 23 21 23 18 33 10 10 10 14 12
78 87 110 124 122 127 123 116 102 88 70 58 49 41 38 38 30 21 25 18 4 3 12 9 14 15 12 23 15 7 17 17 17 11 21 28 39 18 28 25 22 25 7 5 7 5 13
96 100 118 116 128 126 121 111 85 70 61 47 41 43 47 42 26 32 26 19 6 5 9 10 6 15 14 11 20 17 12 8 9 7 15 19 11 18 7 14 12 21 2 6 7 6 17
112 121 123 134 141 135 108 87 77 68 59 49 41 43 42 39 37 37 34 6 9 13 15 6 1 1 4 6 14 16 6 6 8 7 7 6 18 9 13 7 3 11 1 5 10 6 9
119 117 135 135 107 98 100 92 83 69 57 50 46 49 39 38 37 39 29 6 12 13 9 11 14 9 9 15 15 10 4 6 4 7 6 5 9 5 13 2 3 6 4 13 7 11 8
113 111 109 104 103 93 86 78 73 64 60 58 54 40 32 28 32 39 5 9 8 8 19 20 6 9 9 17 16 23 4 10 4 2 5 4 12 13 9 7 8 1 6 2 0 9 14
118 112 103 97 89 82 82 77 70 59 60 53 55 20 22 17 25 18 7 11 9 20 25 8 8 13 14 13 17 18 11 7 8 5 6 8 8 10 12 7 9 3 4 6 3 6 8
122 107 93 82 78 77 71 66 61 59 60 53 24 6 19 27 10 8 5 9 10 23 20 5 9 3 2 9 15 12 15 18 10 12 6 10 8 8 11 19 29 23 14 9 5 10 7
111 96 84 81 76 69 67 59 54 61 54 34 14 14 14 27 6 3 5 10 13 13 13 1 6 13 15 7 9 7 12 24 7 6 4 5 6 6 11 7 11 9 3 6 5 7 9
96 89 82 75 71 67 60 53 53 58 49 36 16 6 8 8 2 3 7 8 12 10 5 1 5 9 10 9 11 10 18 14 25 8 6 8 10 13 9 14 14 24 31 25 13 9 13
93 90 84 77 68 61 58 53 47 49 36 26 8 7 14 6 6 6 3 7 8 10 14 30 8 5 4 4 8 9 13 17 22 12 6 9 5 20 27 34 24 24 34 39 32 24 28
84 81 75 69 62 56 53 50 46 46 30 19 14 9 10 10 23 15 9 7 8 9 4 9 5 8 6 4 7 5 3 7 6 10 3 7 4 5 10 27 23 29 34 33 35 34 31
79 75 69 62 54 49 49 47 45 42 29 22 20 17 8 5 11 10 11 11 8 7 7 2 6 4 5 7 9 8 12 20 17 12 8 8 8 4 8 10 19 14 14 19 25 31 31
75 70 65 54 48 46 48 48 43 31 32 32 17 16 10 1 6 8 12 18 10 8 5 9 8 3 13 6 13 22 28 31 31 23 28 17 16 9 17 16 25 12 16 23 31 30 27
69 63 56 49 45 47 48 46 40 35 32 29 18 17 8 3 6 13 12 6 12 10 2 11 15 14 5 7 6 9 6 10 17 29 27 22 11 5 11 22 25 29 31 28 29 30 16
61 58 53 49 48 46 45 41 38 35 33 25 25 22 10 8 9 19 11 10 7 7 10 25 6 8 10 5 3 7 6 6 8 12 18 16 10 16 13 10 9 10 11 38 16 20 18
56 52 49 49 46 42 39 35 36 33 27 27 27 19 14 10 10 7 6 5 8 10 3 6 7 6 18 4 3 4 10 10 12 17 12 9 9 4 4 8 10 17 20 32 12 12 37
53 53 53 47 42 38 32 30 34 31 26 24 22 14 16 6 2 5 4 6 8 6 2 7 8 5 5 2 5 6 6 4 6 8 11 7 8 8 7 5 16 22 28 10 25 54 48
56 51 46 44 41 34 34 33 32 29 23 19 13 6 2 4 7 8 15 19 22 18 5 3 4 8 3 5 5 3 5 5 12 15 6 9 10 10 10 13 26 51 47 64 60 62 61
Wind_Direction_850mb
229 229 230 229 228 226 227 227 228 227 230 233 238 242 248 254 261 265 271 278 284 291 296 300 303 307 312 291 260 270 304 304 299 303 269 272 267 276 260 266 279 270 280 294 305 306 307
229 227 228 228 228 226 226 226 227 227 229 231 236 241 245 253 261 266 272 283 286 291 296 299 299 303 305 271 293 284 306 296 291 283 271 259 269 281 288 281 277 288 295 293 293 291 292
230 226 227 228 226 226 224 223 224 225 227 231 233 238 246 255 263 268 275 280 286 289 295 302 306 310 293 265 283 253 244 266 264 268 271 262 274 287 292 312 294 312 309 296 284 287 275
233 227 227 227 226 225 224 222 220 224 227 225 232 241 256 267 269 271 269 275 274 285 298 296 297 301 274 298 285 267 248 262 275 277 264 256 264 271 278 280 298 304 290 278 268 264 267
233 229 227 228 226 224 222 220 223 221 221 226 235 243 257 269 268 261 265 273 283 289 294 287 287 292 274 331 274 326 278 266 290 289 269 270 249 247 257 262 283 237 256 256 275 254 258
234 231 229 228 227 224 223 220 222 221 224 230 236 242 249 255 255 258 269 286 297 287 282 273 257 266 267 265 237 265 231 278 286 302 298 279 233 232 263 220 240 248 249 257 262 275 274
234 233 231 230 227 225 224 221 222 225 226 230 234 237 240 242 252 266 285 311 307 293 237 221 209 219 266 239 274 270 260 290 283 302 264 298 215 226 232 232 239 255 267 273 273 282 284
230 235 233 231 229 226 224 222 221 224 226 227 229 229 232 236 253 270 259 173 205 290 297 265 256 256 254 263 288 274 270 286 221 238 255 269 256 258 243 251 269 269 272 276 285 294 292
229 237 233 232 230 227 224 223 222 221 222 218 226 223 226 241 243 227 147 231 239 285 261 285 255 235 248 259 256 268 260 255 255 261 266 265 260 289 260 263 264 270 271 275 274 284 274
232 241 247 233 228 227 224 220 217 210 205 203 211 217 223 207 194 168 200 211 254 299 308 251 177 309 221 234 281 261 251 230 215 248 247 259 247 240 255 268 261 274 273 299 309 326 288
236 245 249 236 225 223 224 220 211 206 195 196 198 201 190 173 147 170 179 196 258 41 337 132 123 154 173 178 325 172 192 211 217 263 278 245 301 318 307 282 276 269 46 30 352 327 339
236 239 241 231 222 220 218 212 203 196 190 193 193 183 171 164 145 152 184 193 144 76 246 202 139 178 180 213 253 201 170 205 239 251 257 265 278 279 269 289 298 295 308 349 260 202 243
231 235 229 214 213 219 209 201 184 183 182 178 174 170 169 173 168 172 174 161 107 211 260 141 166 156 205 244 223 228 218 217 209 249 250 269 270 290 54 329 340 18 314 309 298 217 253
224 219 209 216 210 207 192 175 172 169 162 160 151 151 165 179 184 180 174 93 195 221 266 61 214 297 265 282 289 259 242 244 320 56 16 275 298 360 11 49 12 311 142 212 245 272 327
199 185 191 182 169 166 165 163 160 154 150 145 155 170 172 179 187 179 157 187 205 208 324 7 345 306 233 240 260 265 287 241 73 92 174 326 245 354 349 98 5 338 295 170 193 219 252
174 162 166 160 158 157 151 148 144 143 145 155 153 152 169 182 184 170 122 229 242 8 355 16 300 347 349 343 345 5 214 122 96 129 127 246 292 266 297 118 58 17 345 341 308 245 243
159 162 158 151 148 147 141 138 132 140 149 151 138 133 161 164 162 157 183 217 283 304 31 0 321 294 320 349 343 342 317 347 228 173 74 341 209 269 355 215 206 56 309 34 313 168 208
153 149 146 147 143 140 131 129 144 153 148 146 140 107 159 155 126 195 194 174 243 274 309 302 327 258 268 298 297 307 298 302 24 21 297 277 11 272 253 288 304 282 244 181 210 238 226
149 152 148 137 132 127 131 137 143 142 143 146 108 102 131 158 148 220 258 227 241 247 248 314 348 9 355 277 276 283 301 337 84 100 5 21 190 288 310 294 291 74 244 145 272 289 218
142 138 136 136 136 136 142 146 150 147 147 145 131 108 131 188 166 143 176 245 251 175 156 102 300 321 322 320 309 281 307 304 342 27 179 145 216 233 241 263 303 295 293 287 224 249 270
143 139 142 142 141 144 146 150 155 147 146 144 109 144 164 169 230 206 14 322 237 231 191 174 198 231 353 289 329 310 359 355 343 11 243 355 268 280 275 266 279 286 281 288 275 269 270
147 143 140 141 142 143 146 146 152 149 140 113 116 125 155 167 156 174 193 227 243 278 104 128 90 20 69 2 54 257 19 349 289 4 24 57 295 320 284 293 294 293 293 296 295 295 289
145 143 143 145 143 143 137 142 144 142 128 108 105 122 122 151 149 144 185 211 228 105 41 27 61 106 341 47 14 333 293 281 275 286 292 211 190 246 252 305 311 286 258 261 271 267 267
144 140 141 141 142 138 137 140 143 121 125 122 98 131 86 250 136 203 142 169 170 138 140 44 93 3 45 52 320 307 301 285 265 251 236 241 255 247 270 287 269 252 252 281 294 300 322
139 140 140 142 142 138 137 138 133 116 113 100 92 112 97 44 211 96 92 55 38 48 272 238 258 255 256 38 19 303 282 272 242 242 240 228 232 235 237 257 280 297 279 275 286 305 347
138 140 145 142 139 136 136 138 142 127 115 119 105 95 86 68 1 16 91 159 180 228 259 227 133 136 95 109 151 233 247 282 275 320 321 319 237 237 265 268 239 266 315 323 309 299 306
138 139 137 135 135 135 136 139 143 134 127 112 124 105 88 87 39 88 76 70 28 20 341 66 22 169 178 147 174 216 255 299 285 295 310 335 337 204 261 250 277 261 309 307 283 281 317
134 135 136 135 134 133 132 133 140 142 128 124 122 121 113 107 325 352 38 19 324 301 125 349 15 299 41 110 152 235 259 280 317 345 336 297 301 284 305 322 280 3 338 334 296 298 299
132 133 134 134 135 134 133 135 142 151 140 114 102 118 164 179 224 256 262 253 240 235 319 131 242 320 249 66 17 354 325 316 272 283 306 270 189 272 249 256 282 295 281 283 290 292 290